Location: Carnoy
(49.9849°N, 2.7558°E)
Time: 19:38:30
(UTC+00:00)

ATLAS 5 CENTAUR R/B - Pass Details

Date: 24 January 2020
Orbit: 550 x 1108 km, 63.4° (Epoch: 09 February)

Event Time Altitude Azimuth Distance (km) Brightness Sun altitude
Rises 18:51:15 0° 293° (WNW) 2,955 6.1 -22.6°
Reaches altitude 10° 18:54:05 10° 312° (NW) 2,134 4.9 -23.0°
Maximum altitude 18:57:31 19° 357° (N) 1,731 3.8 -23.6°
Enters shadow 18:58:32 18° 12° (NNE) 1,809 3.8 -23.7°
